STARLINK-1107, 44972

Orbit data source: Space-Track

STARLINK-1107, 44972 is a payload satellite owned by SpaceX/Seattle (US) in LEO that was launched on Tue, 07 Jan 2020 UTC via an FALCON 9 launch vehicle from the Air Force Eastern Test Range (AFETR). Payload-class satellites include a variety of spacecraft equipped with specific instruments for various scientific and technological missions. These include communications satellites like Starlink; space stations such as the ISS; scientific satellites like the Hubble; Earth observation satellites from companies like Planet Labs, Umbra, and HawkEye 360; GPS; miniature CubeSats for education and research; and military/defense satellites.

Loading next visibility...
Identifier
44972, 2020-001BL
Orbit
LEO
Country
Flag of USUS
Related business
Manufacturer
SpaceX/Seattle
Mission
Partially operational Commercial Communications
Bus & Motor
STARLINK, Unknown motor
Mass
260 kg wet, ~248 kg dry
Launch date (UTC)
2020-01-07 (6 years ago)
Launch vehicle
FALCON 9
Launch site
Air Force Eastern Test Range (AFETR)
Object type
Payload
Rocket body
Debris
Shape & HBR
Box + 1 Pan, 10.1 m
Radar Cross Section
13.562 m², Large (>1 m²)

Expand to show TLE details & history
Last TLE update: 5 hours ago

TLE from 5 hours ago
0 STARLINK-1107
1 44972U 20001BL  25291.25003471  .00139436  00000-0  14658-2 0  9992
2 44972  53.0092 146.2379 0006419 172.7629  37.3563 15.63368210  6034
Epoch: 2025-10-18T06:00Z
TLE epoch observation values (Epoch: 2025-10-18T06:00:02.998Z)
Latitude
-23.85841°
Longitude
-131.41072°
Altitude
381.344 km
Speed
7.683 km/s
True Right ascension
23h 02m 20s
True Declination
-23° 43' 28"
Sunlit
Object was in full shadow at epoch
Visualization orbit readout
Latitude
Unknown
Longitude
Unknown
Altitude
Unknown
Speed
Unknown
Apparent Right ascension
Unknown
Apparent Declination
Unknown
Sunlit
N/A
Visualization observer readout
Local Sidereal Time
05:33:19
Azimuth
Unknown
Elevation
Unknown
Doppler factor
Unknown
Orbital elements
Apogee altitude
382.557 km
Perigee altitude
373.884 km
Semi-major axis
6,756.358 km
Eccentricity
0.00064
Inclination
53.0092°
RAAN
146.2379°
Arg. of periapsis
172.7629°
True anomaly
37.40096°
Mean anomaly
37.3563°
Eccentric anomaly
37.37863°
Mean motion
3.90818 °/min
Orbital period
92.11 mins
BSTAR
0.0014658
Loading maneuver chart data...
Computing Atmospheric mass density...

Documentation

Showing up to 5 results
|